When you browse on this site, cookies collect data to enhance your experience and personalize the content and advertising you see.
Visit our Privacy Policy to learn more. By continuing to use the site, you agree to this use of cookies and data.
  • En España
  • Lista de países
  • Para 7 días
  • Temperatura del agua
  • Mapa Satelital
  • El tiempo en el mapa
  • Informadores
  • user-avatar
    Iniciar sesión

    Tiempo cada hora Lezhe

    Hoy, 12 Diciembre, Miércoles

    Tiempo Temperatura Precipitaciones Viento Presión Humedad
    00:00 +1°C° 0 mm 2 mps 739 mmHg 58%
    01:00 +1°C° 0 mm 2 mps 738 mmHg 57%
    02:00 +1°C° 0 mm 2 mps 738 mmHg 56%
    03:00 +1°C° 0 mm 2 mps 739 mmHg 56%
    04:00 +1°C° 0 mm 2 mps 739 mmHg 56%
    05:00 +1°C° 0 mm 2 mps 739 mmHg 55%
    06:00 +1°C° 0 mm 2 mps 739 mmHg 54%
    07:00 +1°C° 0 mm 2 mps 739 mmHg 54%
    08:00 +2°C° 0 mm 2 mps 739 mmHg 49%
    09:00 +5°C° 0 mm 1 mps 740 mmHg 44%
    10:00 +6°C° 0 mm 1 mps 740 mmHg 39%
    11:00 +7°C° 0 mm 1 mps 739 mmHg 38%
    12:00 +7°C° 0 mm 1 mps 739 mmHg 36%
    13:00 +8°C° 0 mm 1 mps 739 mmHg 35%
    14:00 +7°C° 0 mm 1 mps 739 mmHg 39%
    15:00 +5°C° 0 mm 1 mps 739 mmHg 44%
    16:00 +4°C° 0 mm 1 mps 739 mmHg 48%
    17:00 +4°C° 0 mm 1 mps 740 mmHg 49%
    18:00 +3°C° 0 mm 1 mps 740 mmHg 50%
    19:00 +2°C° 0 mm 2 mps 740 mmHg 50%
    20:00 +2°C° 0 mm 2 mps 740 mmHg 50%
    21:00 +2°C° 0 mm 2 mps 740 mmHg 49%
    22:00 +1°C° 0 mm 2 mps 740 mmHg 49%
    23:00 +1°C° 0 mm 2 mps 740 mmHg 48%

    Mañana, 13 Diciembre, Jueves

    Tiempo Temperatura Precipitaciones Viento Presión Humedad
    00:00 +1°C° 0 mm 2 mps 740 mmHg 47%
    01:00 +1°C° 0 mm 2 mps 741 mmHg 47%
    02:00 +1°C° 0 mm 2 mps 740 mmHg 46%
    03:00 +1°C° 0 mm 2 mps 740 mmHg 45%
    04:00 0°C° 0 mm 3 mps 740 mmHg 45%
    05:00 0°C° 0 mm 3 mps 740 mmHg 44%
    06:00 0°C° 0 mm 3 mps 739 mmHg 43%
    07:00 0°C° 0 mm 3 mps 739 mmHg 43%
    08:00 +2°C° 0 mm 3 mps 739 mmHg 41%
    09:00 +3°C° 0 mm 3 mps 739 mmHg 40%
    10:00 +5°C° 0 mm 3 mps 739 mmHg 39%
    11:00 +5°C° 0 mm 3 mps 738 mmHg 42%
    12:00 +5°C° 0 mm 3 mps 738 mmHg 45%
    13:00 +5°C° 0 mm 3 mps 737 mmHg 49%
    14:00 +4°C° 0.1 mm 4 mps 737 mmHg 55%
    15:00 +3°C° 0.1 mm 4 mps 737 mmHg 62%
    16:00 +3°C° 0.1 mm 4 mps 737 mmHg 68%
    17:00 +3°C° 0.1 mm 4 mps 737 mmHg 71%
    18:00 +3°C° 0.1 mm 4 mps 737 mmHg 73%
    19:00 +1°C° 0.1 mm 4 mps 737 mmHg 76%
    20:00 +3°C° 0.1 mm 4 mps 737 mmHg 76%
    21:00 +3°C° 0.1 mm 4 mps 737 mmHg 77%
    22:00 +3°C° 0.1 mm 4 mps 737 mmHg 77%
    23:00 +3°C° 0.1 mm 4 mps 737 mmHg 77%

    Pasado mañana, 14 Diciembre, Viernes

    Tiempo Temperatura Precipitaciones Viento Presión Humedad
    00:00 +3°C° 0.1 mm 3 mps 737 mmHg 77%
    01:00 +3°C° 0.1 mm 3 mps 737 mmHg 77%
    02:00 +3°C° 0.2 mm 3 mps 737 mmHg 78%
    03:00 +3°C° 0.2 mm 3 mps 736 mmHg 78%
    04:00 +4°C° 0.2 mm 3 mps 736 mmHg 79%
    05:00 +4°C° 0.4 mm 3 mps 736 mmHg 80%
    06:00 +4°C° 0.4 mm 3 mps 737 mmHg 82%
    07:00 +4°C° 0.4 mm 3 mps 737 mmHg 83%
    08:00 +5°C° 0.5 mm 3 mps 737 mmHg 83%
    09:00 +5°C° 0.5 mm 3 mps 737 mmHg 83%
    10:00 +7°C° 0.5 mm 3 mps 737 mmHg 83%
    11:00 +7°C° 0.4 mm 3 mps 737 mmHg 83%
    12:00 +7°C° 0.4 mm 3 mps 736 mmHg 84%
    13:00 +7°C° 0.4 mm 3 mps 736 mmHg 85%
    14:00 +7°C° 0.3 mm 3 mps 736 mmHg 85%
    15:00 +7°C° 0.3 mm 3 mps 736 mmHg 86%
    16:00 +7°C° 0.3 mm 3 mps 736 mmHg 86%
    17:00 +7°C° 0.1 mm 3 mps 736 mmHg 86%
    18:00 +7°C° 0.1 mm 3 mps 736 mmHg 86%
    19:00 +7°C° 0.1 mm 3 mps 736 mmHg 86%
    20:00 +7°C° 0.3 mm 3 mps 736 mmHg 86%
    21:00 +7°C° 0.3 mm 3 mps 736 mmHg 86%
    22:00 +7°C° 0.3 mm 3 mps 736 mmHg 86%
    23:00 +7°C° 0.2 mm 3 mps 736 mmHg 86%

    15 Diciembre, Sábado

    Tiempo Temperatura Precipitaciones Viento Presión Humedad
    00:00 +7°C° 0.2 mm 3 mps 736 mmHg 86%
    01:00 +7°C° 0.2 mm 3 mps 736 mmHg 85%
    02:00 +7°C° 0.1 mm 3 mps 735 mmHg 85%
    03:00 +7°C° 0.1 mm 3 mps 735 mmHg 85%
    04:00 +7°C° 0.1 mm 3 mps 735 mmHg 85%
    05:00 +7°C° 0.1 mm 3 mps 735 mmHg 84%
    06:00 +7°C° 0.1 mm 3 mps 735 mmHg 84%
    07:00 +7°C° 0.1 mm 3 mps 735 mmHg 83%
    08:00 +8°C° 0.2 mm 3 mps 735 mmHg 84%
    09:00 +8°C° 0.2 mm 3 mps 735 mmHg 84%
    10:00 +9°C° 0.2 mm 3 mps 735 mmHg 84%
    11:00 +9°C° 0.3 mm 3 mps 735 mmHg 83%
    12:00 +10°C° 0.3 mm 3 mps 735 mmHg 83%
    13:00 +10°C° 0.3 mm 3 mps 735 mmHg 82%
    14:00 +9°C° 0.2 mm 3 mps 734 mmHg 83%
    15:00 +9°C° 0.2 mm 2 mps 734 mmHg 83%
    16:00 +9°C° 0.2 mm 2 mps 734 mmHg 84%
    17:00 +9°C° 0.1 mm 3 mps 735 mmHg 84%
    18:00 +8°C° 0.1 mm 3 mps 735 mmHg 83%
    19:00 +8°C° 0.1 mm 3 mps 735 mmHg 83%
    20:00 +8°C° 0.1 mm 3 mps 735 mmHg 83%
    21:00 +8°C° 0.1 mm 3 mps 736 mmHg 83%
    22:00 +7°C° 0.1 mm 3 mps 736 mmHg 83%
    23:00 +7°C° 0 mm 3 mps 736 mmHg 83%

    16 Diciembre, Domingo

    Tiempo Temperatura Precipitaciones Viento Presión Humedad
    00:00 +7°C° 0 mm 3 mps 736 mmHg 83%
    01:00 +7°C° 0 mm 3 mps 736 mmHg 83%
    02:00 +7°C° 0 mm 3 mps 736 mmHg 83%
    03:00 +5°C° 0 mm 3 mps 737 mmHg 83%
    04:00 +5°C° 0 mm 3 mps 737 mmHg 83%
    05:00 +5°C° 0 mm 3 mps 737 mmHg 83%
    06:00 +5°C° 0 mm 3 mps 738 mmHg 84%
    07:00 +5°C° 0 mm 3 mps 738 mmHg 84%
    08:00 +7°C° 0 mm 3 mps 738 mmHg 82%
    09:00 +9°C° 0 mm 3 mps 739 mmHg 79%
    10:00 +10°C° 0 mm 2 mps 739 mmHg 77%
    11:00 +12°C° 0 mm 2 mps 739 mmHg 75%
    12:00 +12°C° 0 mm 2 mps 739 mmHg 74%
    13:00 +13°C° 0 mm 2 mps 739 mmHg 72%
    14:00 +12°C° 0 mm 2 mps 740 mmHg 75%
    15:00 +10°C° 0 mm 2 mps 740 mmHg 78%
    16:00 +9°C° 0 mm 3 mps 740 mmHg 81%
    17:00 +8°C° 0 mm 2 mps 740 mmHg 82%
    18:00 +8°C° 0 mm 2 mps 741 mmHg 83%
    19:00 +7°C° 0 mm 2 mps 741 mmHg 84%
    20:00 +7°C° 0 mm 2 mps 741 mmHg 83%
    21:00 +7°C° 0 mm 2 mps 742 mmHg 83%
    22:00 +6°C° 0 mm 2 mps 742 mmHg 82%
    23:00 +6°C° 0 mm 2 mps 742 mmHg 81%

    17 Diciembre, Lunes

    Tiempo Temperatura Precipitaciones Viento Presión Humedad
    00:00 +6°C° 0 mm 2 mps 742 mmHg 80%
    01:00 +6°C° 0 mm 2 mps 742 mmHg 80%
    02:00 +6°C° 0 mm 2 mps 742 mmHg 79%
    03:00 +6°C° 0 mm 2 mps 742 mmHg 79%
    04:00 +7°C° 0 mm 1 mps 742 mmHg 78%
    05:00 +7°C° 0 mm 1 mps 742 mmHg 78%
    06:00 +7°C° 0 mm 1 mps 742 mmHg 77%
    07:00 +7°C° 0 mm 1 mps 742 mmHg 77%
    08:00 +9°C° 0 mm 1 mps 742 mmHg 74%
    09:00 +10°C° 0 mm 1 mps 742 mmHg 71%
    10:00 +11°C° 0 mm 1 mps 742 mmHg 68%
    11:00 +12°C° 0 mm 1 mps 742 mmHg 68%
    12:00 +12°C° 0 mm 1 mps 742 mmHg 68%
    13:00 +13°C° 0 mm 1 mps 741 mmHg 67%
    14:00 +12°C° 0 mm 1 mps 741 mmHg 72%
    15:00 +11°C° 0 mm 1 mps 741 mmHg 76%
    16:00 +10°C° 0 mm 1 mps 741 mmHg 80%
    17:00 +9°C° 0 mm 1 mps 741 mmHg 82%
    18:00 +9°C° 0 mm 1 mps 741 mmHg 83%
    19:00 +8°C° 0 mm 1 mps 742 mmHg 84%
    20:00 +8°C° 0 mm 1 mps 742 mmHg 85%
    21:00 +8°C° 0 mm 1 mps 742 mmHg 85%
    22:00 +7°C° 0 mm 2 mps 742 mmHg 86%
    23:00 +7°C° 0 mm 2 mps 742 mmHg 86%
    Mostrar más